Flag for U.S.A. Weather past 2 weeks in Birmingham, Alabama, U.S.A.

Now
69 °F

Sunny.


Feels Like: 69 °F
Forecast: 50 / 75 °F
Wind: No wind

Location: Birmingham International Airport

Current Time: Oct 21, 2014 at 12:06:05 PM

Latest Report: Oct 21, 2014 at 10:53 AM


Visibility: 10 mi

Pressure: 30.08 "Hg

Humidity: 57%

Dew point: 53 °F

Location of BirminghamLocation

Historic Weather in Birmingham — Graph

°F

Birmingham temperature yesterday

Maximum temperature yesterday: 74 °F (at 3:53 PM)
Minimum temperature yesterday: 47 °F (at 4:53 AM)
Average temperature yesterday: 60 °F

Past Weeks' High & Low Weather Summary

 TemperatureHumidityPressure
High87 °F (Oct 8, 2:53 PM)97% (Oct 18, 5:53 AM)30.20 "Hg (Oct 18, 5:53 AM)
Low46 °F (Oct 19, 6:53 AM)33% (Oct 16, 2:53 PM)29.69 "Hg (Oct 14, 4:53 AM)
Average68 °F70%30.00 "Hg
* Reported Oct 6 10:53 AM — Oct 21 10:53 AM, Birmingham, Weather by CustomWeather, © 2014

Note: Actual official high and low records may vary slightly from our data, if they occured in-between our weather recording intervals... More about our weather records

Advertising

Birmingham weather history for previous 24 hours

 ConditionsComfort  
Time TempWeatherWind HumidityBarometerVisibility
10:53 AM
Oct 21
69 °FSunny.No wind57%30.08 "Hg10 mi
9:53 AM64 °FSunny.No wind65%30.09 "Hg10 mi
8:53 AM58 °FSunny.No wind78%30.09 "Hg10 mi
7:53 AM52 °FClear.No wind89%30.07 "Hg10 mi
6:53 AM49 °FClear.No wind93%30.06 "Hg10 mi
5:53 AM49 °FClear.No wind93%30.05 "Hg10 mi
4:53 AM50 °FClear.No wind93%30.04 "Hg10 mi
3:53 AM51 °FClear.No wind89%30.03 "Hg10 mi
2:53 AM51 °FClear.No wind92%30.03 "Hg10 mi
1:53 AM52 °FClear.No wind93%30.03 "Hg10 mi
12:53 AM53 °FClear.No wind89%30.04 "Hg10 mi
11:53 PM
Oct 20
54 °FClear.No wind86%30.04 "Hg10 mi
10:53 PM55 °FClear.No wind87%30.05 "Hg10 mi
9:53 PM56 °FClear.No wind87%30.05 "Hg10 mi
8:53 PM58 °FClear.No wind81%30.04 "Hg10 mi
7:53 PM61 °FPassing clouds.No wind70%30.03 "Hg10 mi
6:53 PM65 °FScattered clouds.No wind54%30.02 "Hg10 mi
5:53 PM69 °FPassing clouds.7 mph45%30.01 "Hg10 mi
4:53 PM72 °FScattered clouds.8 mph41%30.00 "Hg10 mi
3:53 PM74 °FScattered clouds.7 mph40%30.01 "Hg10 mi
2:53 PM73 °FScattered clouds.5 mph38%30.02 "Hg10 mi
1:53 PM73 °FScattered clouds.7 mph40%30.03 "Hg10 mi
12:53 PM71 °FPassing clouds.5 mph41%30.06 "Hg10 mi
Weather by CustomWeather, © 2014

See weather overviewHow to use our weather pages